Regional Weather Roundup
Issued by NWS

Home | Current Version | Previous Version | Text Only | Print | Product List | Glossary On
Versions: 1 2 3 4 5 6 7 8 9 10 11 12 13 14 15 16 17 18 19 20 21 22 23 24 25 26 27 28 29 30 31 32 33 34 35 36 37 38 39 40 41 42 43 44 45 46 47 48 49 50
000
ASUS45 KREV 251110
RWRNV
NEVADA REGIONAL WEATHER ROUNDUP
NATIONAL WEATHER SERVICE RENO NV
300 AM PST THU DEC 25 2014

NOTE: "FAIR" INDICATES FEW OR NO CLOUDS BELOW 12,000 FEET WITH NO
SIGNIFICANT WEATHER AND/OR OBSTRUCTIONS TO VISIBILITY.

NVZ001-003-004-251200-
WESTERN NEVADA

CITY           SKY/WX    TMP DP  RH WIND       PRES   REMARKS
RENO           PTCLDY    31  18  58 N10G18    30.00R
CARSON CITY    CLOUDY    30  16  55 CALM      30.00R
MINDEN         FAIR      27  18  69 NW10      30.01
PYRAMID LAKE     N/A     34 N/A N/A NW6         N/A
FALLON         CLEAR     30  16  56 N7        29.97R
LOVELOCK       PTCLDY    32  16  51 NW13      29.93R
HAWTHORNE      MOCLDY    34  16  47 NW22G29   29.96R
$$

NVZ002-CAZ072-073-251200-
NORTHERN AND CENTRAL SIERRA

CITY           SKY/WX    TMP DP  RH WIND       PRES   REMARKS
S. LAKE TAHOE  PTCLDY    24   9  52 NE8G16    29.93R
TRUCKEE        CLOUDY    23  16  74 N5        29.97S
SQUAW VLY 8000   N/A     14  14 100 VRB29       N/A  WCI  -7
SUSANVILLE     CLOUDY   N/A N/A N/A SW3         N/A
BLUE CANYON    CLEAR     28  14  55 VRB7      29.95S
MAMMOTH LAKES  MOCLDY    21  12  68 NW3       29.89S
BRIDGEPORT     FAIR      19   7  59 NE3       29.90R
$$

NVZ030-031-036-251200-
NORTHERN NEVADA

CITY           SKY/WX    TMP DP  RH WIND       PRES   REMARKS
ELKO           CLOUDY    26  17  68 SW9G18    29.77R
WINNEMUCCA     MOCLDY    30  19  63 NW17      29.88F
WENDOVER       CLOUDY    34  18  51 NW18G26   29.59R
$$

NVZ035-037-251200-
CENTRAL NEVADA

CITY           SKY/WX    TMP DP  RH WIND       PRES   REMARKS
ELY            FLURRIES  24  16  71 N15       29.67R
EUREKA           N/A     24  18  77 NW10      29.75R
$$

NVZ013-014-251200-
SOUTH CENTRAL NEVADA

CITY           SKY/WX    TMP DP  RH WIND       PRES   REMARKS
TONOPAH        PTCLDY    27  18  69 NW36G47   29.75S
$$

NVZ017-020-022-251200-
SOUTHERN NEVADA

CITY           SKY/WX    TMP DP  RH WIND       PRES   REMARKS
LAS VEGAS      CLOUDY    51  26  37 N13G22    29.63S
N. LAS VEGAS   CLOUDY    49  26  41 N16       29.65F
NELLIS AFB     CLOUDY    50  30  46 W13       29.67F
HENDERSON      CLOUDY    48  30  49 E9        29.69R
MERCURY        PTCLDY    41  20  43 N7        29.74R
$$



USA.gov is the U.S. government's official web portal to all federal, state and local government web resources and services.